Weather in Tkibuli

Georgia     42°21′08″N   42°59′47″E
temp.,
°C
wind,
m/s
gust,
m/s
humid.,
%
clouds,
%
prec.,
mm/h
press.,
hPa
HPBL,
m
13 april, tue
tue1301:00+6ene009295 0.1 102314
04:00+6sw1198100 0.5 102244
07:00+6sw12100100 1.1 1022170
10:00+6ssw1198100 1.8 1023296
13:00+6wsw2297100 0.5 1023422
16:00+6sw2399100 1.4 1022301
19:00+6wsw25100100 4.8 1021309
22:00+6nne0197100 11.8 102377
14 april, wed
wed1401:00+6nne0193100 0.1 102229
04:00+6wnw1194100 0.1 102149
07:00+6e1195100 0.0 102192
10:00+10ese237793 0.0 1020550
13:00+15wsw345495 0.0 10181128
16:00+16w57480 0.0 10161202
19:00+13wsw23744 0.0 101761
22:00+8ne22838 0.0 101917
15 april, thu
thu1501:00+7ne32775 0.0 101827
04:00+6ne227315 0.0 101920
07:00+7ne346781 0.0 101958
10:00+15e23465 0.0 1017558
13:00+19w2336100 0.0 10151357
16:00+20w36369 0.0 10141466
19:00+16wsw116224 0.0 101511
22:00+11nne2169100 0.0 101712
16 april, fri
fri1601:00+9ese118636 0.0 101811
04:00+8ene3379100 0.0 101838
07:00+9ne3368100 0.0 101756
10:00+17e46497 0.0 1015679
13:00+21e55388 0.0 10141351
16:00+22ese0231100 0.0 10131409
19:00+15wsw4576100 0.0 1015147
22:00+10wsw359199 0.1 1020448
17 april, sat
sat1701:00+9sw2296100 0.6 1022197
04:00+9ese1194100 1.0 1021148
07:00+10ese119399 0.0 102175
10:00+12sw118489 0.1 1020411
13:00+17sw2265100 0.0 1018675
16:00+19sw3361100 0.1 1016608
19:00+16wsw2484100 0.3 1017141
22:00+11e1197100 0.6 101823